Location: ???? ????
(41.4149°N, 22.8816°E)
Time: 14:59:49
(UTC+00:00)

IRAS Rocket - Pass Details

Date: 14 July 2020
Orbit: 848 x 877 km, 100.1° (Epoch: 03 August)

Event Time Altitude Azimuth Distance (km) Brightness Sun altitude
Exits shadow 00:11:57 54° 198° (SSW) 1,029 4.2 -23.0°
Maximum altitude 00:13:06 69° 256° (WSW) 908 4.1 -22.9°
Drops below altitude 10° 00:18:35 10° 340° (NNW) 2,486 7.2 -22.5°
Sets 00:20:59 0° 343° (NNW) 3,429 8.0 -22.3°
